Imperial, NE

4:34 AM MDT on March 30, 2017 (GMT -0600)
Imperial Municipal

Weather History for KIML - May, 2013

Change the Weather History Date:

Monday, May 27, 2013

  Actual Average Record
Temperature  
Mean Temperature 66 °F 64 °F  
Max Temperature 77 °F 77 °F 101 °F (2006)
Min Temperature 55 °F 51 °F 31 °F (1950)
Degree Days  
Heating Degree Days 0 3  
Month to date heating degree days 204 189  
Cooling Degree Days 1 2  
Month to date cooling degree days 65 32  
Year to date cooling degree days 67 33  
Growing Degree Days 18 (Base 50)    
Moisture  
Dew Point 58 °F    
Average Humidity 57    
Maximum Humidity 93    
Minimum Humidity 20    
Precipitation  
Precipitation T in 0.10 in 2.10 in (1915)
Sea Level Pressure  
Sea Level Pressure 29.70 in    
Wind  
Wind Speed 12 mph (East)    
Max Wind Speed 33 mph    
Max Gust Speed 41 mph    
Visibility 9 miles    
Events Rain , Thunderstorm    
T = Trace of Precipitation, MM = Missing Value Source: NWS Daily Summary

Daily Weather History Graph

Daily Weather History Graph

Search for Another Location

Airport or City:

Trip Planner

Search our weather history database for the weather conditions in past years. The results will help you decide how hot, cold, wet, or windy it might be!

Date:

Astronomy

May. 27, 2013 Rise Set
Actual Time 5:20 AM MDT 8:07 PM MDT
Civil Twilight 4:48 AM MDT 8:39 PM MDT
Nautical Twilight 4:08 AM MDT 9:19 PM MDT
Astronomical Twilight 3:22 AM MDT 10:06 PM MDT
Moon 10:47 PM MDT (5/27) 8:00 AM MDT (5/27)
Length of Visible Light 15h 51m
Length of Day
14h 46m
Waning Gibbous, 90% of the Moon is Illuminated
May 27
Waning Gibbous
May 31
Last Quarter
Jun 8
New
Jun 16
First Quarter
Jun 23
Full

Hourly Weather History & Observations

Time (MDT) Temp. Dew Point Humidity Pressure Visibility Wind Dir Wind Speed Gust Speed Precip Events Conditions
12:08 AM 69.8 °F 66.2 °F 88% 29.75 in 9.0 mi NE 17.3 mph - N/A Thunderstorm Clear
12:33 AM 69.8 °F 66.2 °F 88% 29.75 in 9.0 mi East 15.0 mph - N/A   Clear
12:53 AM 70.0 °F 64.9 °F 84% 29.63 in 10.0 mi ENE 16.1 mph - N/A   Clear
1:53 AM 68.0 °F 63.0 °F 84% 29.63 in 10.0 mi NE 4.6 mph - N/A   Clear
2:53 AM 64.0 °F 60.1 °F 87% 29.63 in 10.0 mi North 9.2 mph - N/A   Clear
3:53 AM 64.0 °F 59.0 °F 84% 29.65 in 10.0 mi NNW 17.3 mph 21.9 mph N/A   Clear
4:53 AM 61.0 °F 57.9 °F 90% 29.63 in 10.0 mi NNE 15.0 mph - N/A   Clear
5:53 AM 61.0 °F 57.9 °F 90% 29.64 in 10.0 mi NNW 12.7 mph - N/A   Clear
6:53 AM 63.0 °F 59.0 °F 87% 29.64 in 9.0 mi ENE 17.3 mph - N/A   Partly Cloudy
7:07 AM 64.4 °F 60.8 °F 88% 29.74 in 9.0 mi East 12.7 mph 21.9 mph N/A   Mostly Cloudy
7:51 AM 68.0 °F 62.6 °F 83% 29.75 in 10.0 mi East 11.5 mph - N/A   Partly Cloudy
7:53 AM 68.0 °F 63.0 °F 84% 29.66 in 10.0 mi East 9.2 mph - N/A   Scattered Clouds
8:03 AM 68.0 °F 62.6 °F 83% 29.75 in 10.0 mi ESE 13.8 mph - N/A   Mostly Cloudy
8:22 AM 69.8 °F 64.4 °F 83% 29.76 in 10.0 mi ESE 13.8 mph - N/A   Overcast
8:53 AM 70.0 °F 63.0 °F 78% 29.69 in 10.0 mi East 11.5 mph - N/A   Overcast
9:33 AM 69.8 °F 64.4 °F 83% 29.78 in 8.0 mi East 16.1 mph - N/A   Overcast
9:46 AM 68.0 °F 62.6 °F 83% 29.78 in 8.0 mi East 18.4 mph 23.0 mph N/A   Overcast
9:53 AM 68.0 °F 64.0 °F 87% 29.69 in 5.0 mi East 19.6 mph - N/A   Overcast
10:01 AM 66.2 °F 64.4 °F 94% 29.78 in 2.0 mi East 17.3 mph - 0.00 in Rain Light Rain
10:09 AM 66.2 °F 64.4 °F 94% 29.78 in 3.0 mi East 18.4 mph - 0.00 in   Overcast
10:20 AM 64.4 °F 62.6 °F 94% 29.78 in 5.0 mi East 18.4 mph - 0.00 in   Overcast
10:53 AM 64.9 °F 62.1 °F 90% 29.72 in 7.0 mi East 17.3 mph - 0.00 in   Overcast
11:25 AM 64.4 °F 60.8 °F 88% 29.82 in 8.0 mi ENE 4.6 mph - N/A   Overcast
11:53 AM 64.9 °F 61.0 °F 87% 29.74 in 6.0 mi East 5.8 mph - N/A   Overcast
12:53 PM 66.9 °F 61.0 °F 81% 29.70 in 9.0 mi East 6.9 mph - N/A   Overcast
1:29 PM 69.8 °F 60.8 °F 73% 29.76 in 10.0 mi East 12.7 mph - N/A   Overcast
1:53 PM 69.1 °F 61.0 °F 75% 29.67 in 10.0 mi East 13.8 mph - N/A   Mostly Cloudy
2:53 PM 68.0 °F 61.0 °F 78% 29.69 in 10.0 mi East 9.2 mph - N/A   Overcast
3:12 PM 69.8 °F 60.8 °F 73% 29.76 in 10.0 mi ESE 8.1 mph - N/A   Overcast
3:53 PM 68.0 °F 61.0 °F 78% 29.69 in 10.0 mi South 11.5 mph - N/A   Mostly Cloudy
4:13 PM 68.0 °F 60.8 °F 78% 29.74 in 10.0 mi South 9.2 mph - N/A   Partly Cloudy
4:53 PM 70.0 °F 61.0 °F 73% 29.64 in 10.0 mi ESE 5.8 mph - N/A   Clear
5:53 PM 71.1 °F 61.0 °F 70% 29.62 in 10.0 mi East 11.5 mph - N/A   Clear
6:53 PM 66.9 °F 46.0 °F 47% 29.67 in 10.0 mi NNW 18.4 mph 29.9 mph N/A   Scattered Clouds
7:53 PM 68.0 °F 43.0 °F 40% 29.62 in 10.0 mi NNW 16.1 mph 28.8 mph N/A   Clear
8:53 PM 66.0 °F 44.1 °F 45% 29.62 in 10.0 mi WSW 8.1 mph - N/A   Clear
9:35 PM 77.0 °F 33.8 °F 21% 29.66 in 5.0 mi West 13.8 mph - N/A   Haze
9:53 PM 77.0 °F 34.0 °F 21% 29.57 in 10.0 mi WSW 11.5 mph - N/A   Partly Cloudy
10:53 PM 60.1 °F 46.0 °F 60% 29.65 in 10.0 mi SE 10.4 mph - N/A   Clear
11:53 PM 55.9 °F 46.0 °F 69% 29.70 in 10.0 mi NE 8.1 mph - N/A   Clear